TimeCST,TemperatureF,Dew PointF,Humidity,Sea Level PressureIn,VisibilityMPH,Wind Direction,Wind SpeedMPH,Gust SpeedMPH,PrecipitationIn,Events,Conditions,WindDirDegrees,DateUTC
12:14 AM,-20.2,-25.6,76,30.23,10.0,Calm,Calm,-,N/A,,Clear,0,2013-01-18 06:14:00
12:34 AM,-20.2,-25.6,76,30.22,10.0,Calm,Calm,-,N/A,,Clear,0,2013-01-18 06:34:00
12:54 AM,-18.4,-22.0,84,30.22,10.0,Calm,Calm,-,N/A,,Clear,0,2013-01-18 06:54:00
1:14 AM,-16.6,-20.2,84,30.21,10.0,Calm,Calm,-,N/A,,Clear,0,2013-01-18 07:14:00
1:34 AM,-16.6,-20.2,84,30.20,10.0,Calm,Calm,-,N/A,,Scattered Clouds,0,2013-01-18 07:34:00
1:54 AM,-16.6,-20.2,84,30.19,10.0,Calm,Calm,-,N/A,,Overcast,0,2013-01-18 07:54:00
2:14 AM,-14.8,-18.4,84,30.18,10.0,Calm,Calm,-,N/A,,Overcast,0,2013-01-18 08:14:00
2:34 AM,-13.0,-16.6,84,30.17,10.0,Calm,Calm,-,N/A,,Overcast,0,2013-01-18 08:34:00
2:54 AM,-11.2,-14.8,84,30.16,10.0,Calm,Calm,-,N/A,,Overcast,0,2013-01-18 08:54:00
3:14 AM,-9.4,-14.8,77,30.16,10.0,Calm,Calm,-,N/A,,Overcast,0,2013-01-18 09:14:00
3:34 AM,-9.4,-13.0,84,30.15,10.0,Calm,Calm,-,N/A,,Overcast,0,2013-01-18 09:34:00
3:54 AM,-7.6,-11.2,84,30.14,10.0,Calm,Calm,-,N/A,,Overcast,0,2013-01-18 09:54:00
4:14 AM,-5.8,-9.4,84,30.12,4.0,Calm,Calm,-,N/A,Snow,Light Snow,0,2013-01-18 10:14:00
4:34 AM,-5.8,-9.4,84,30.11,4.0,Calm,Calm,-,N/A,Snow,Light Snow,0,2013-01-18 10:34:00
4:54 AM,-4.0,-7.6,85,30.09,5.0,Calm,Calm,-,N/A,Snow,Light Snow,0,2013-01-18 10:54:00
5:14 AM,-2.2,-7.6,78,30.06,4.0,Calm,Calm,-,N/A,Snow,Light Snow,0,2013-01-18 11:14:00
5:34 AM,-2.2,-5.8,85,30.04,2.5,Calm,Calm,-,N/A,Snow,Light Snow,0,2013-01-18 11:34:00
5:54 AM,-2.2,-5.8,85,30.03,2.5,Calm,Calm,-,N/A,Snow,Light Snow,0,2013-01-18 11:54:00
6:14 AM,-0.4,-5.8,78,30.02,0.8,Calm,Calm,-,N/A,Snow,Light Snow,0,2013-01-18 12:14:00
6:34 AM,-0.4,-5.8,78,30.01,0.2,Calm,Calm,-,N/A,Snow,Snow,0,2013-01-18 12:34:00
6:54 AM,-0.4,-5.8,78,29.99,0.5,Calm,Calm,-,N/A,Snow,Light Snow,0,2013-01-18 12:54:00
7:14 AM,-0.4,-5.8,78,29.98,0.8,Calm,Calm,-,N/A,Snow,Light Snow,0,2013-01-18 13:14:00
7:34 AM,-0.4,-4.0,85,29.95,0.8,Calm,Calm,-,N/A,Snow,Snow,0,2013-01-18 13:34:00
7:54 AM,-0.4,-4.0,85,29.96,2.5,Calm,Calm,-,N/A,Snow,Light Snow,0,2013-01-18 13:54:00
8:15 AM,1.4,-2.2,85,29.96,5.0,Calm,Calm,-,0.01,Snow,Light Snow,0,2013-01-18 14:15:00
8:34 AM,1.4,-2.2,85,29.95,7.0,Calm,Calm,-,0.01,Snow,Light Snow,0,2013-01-18 14:34:00
8:54 AM,1.4,-2.2,85,29.94,3.0,Calm,Calm,-,0.02,Snow,Light Snow,0,2013-01-18 14:54:00
9:14 AM,1.4,-0.4,92,29.93,2.5,Calm,Calm,-,N/A,Snow,Light Snow,0,2013-01-18 15:14:00
9:34 AM,3.2,1.4,92,29.93,3.0,Calm,Calm,-,N/A,Snow,Light Snow,0,2013-01-18 15:34:00
9:54 AM,3.2,1.4,92,29.91,4.0,Calm,Calm,-,N/A,Snow,Light Snow,0,2013-01-18 15:54:00
10:14 AM,5.0,3.2,92,29.91,4.0,Calm,Calm,-,N/A,Snow,Light Snow,0,2013-01-18 16:14:00
10:34 AM,6.8,3.2,85,29.90,3.0,Calm,Calm,-,N/A,Snow,Light Snow,0,2013-01-18 16:34:00
10:54 AM,6.8,5.0,92,29.89,1.0,Calm,Calm,-,0.01,Snow,Light Snow,0,2013-01-18 16:54:00
11:14 AM,8.6,6.8,92,29.87,2.5,Calm,Calm,-,0.01,Snow,Light Snow,0,2013-01-18 17:14:00
11:34 AM,8.6,6.8,92,29.85,3.0,Calm,Calm,-,0.01,Snow,Light Snow,0,2013-01-18 17:34:00
11:54 AM,10.4,8.6,92,29.83,5.0,Calm,Calm,-,0.01,Snow,Light Snow,0,2013-01-18 17:54:00
12:14 PM,12.2,8.6,85,29.81,5.0,Calm,Calm,-,N/A,Snow,Light Snow,0,2013-01-18 18:14:00
12:34 PM,12.2,10.4,92,29.80,5.0,Calm,Calm,-,N/A,Snow,Light Snow,0,2013-01-18 18:34:00
12:54 PM,12.2,10.4,92,29.79,2.5,Calm,Calm,-,N/A,Snow,Light Snow,0,2013-01-18 18:54:00
1:14 PM,12.2,10.4,92,29.78,2.5,Calm,Calm,-,N/A,Snow,Light Snow,0,2013-01-18 19:14:00
1:34 PM,12.2,10.4,92,29.77,7.0,Calm,Calm,-,N/A,Snow,Light Snow,0,2013-01-18 19:34:00
1:54 PM,12.2,10.4,92,29.78,7.0,Calm,Calm,-,N/A,Snow,Light Snow,0,2013-01-18 19:54:00
2:14 PM,12.2,10.4,92,29.78,7.0,Calm,Calm,-,N/A,Snow,Light Snow,0,2013-01-18 20:14:00
2:34 PM,12.2,10.4,92,29.78,7.0,Calm,Calm,-,N/A,Snow,Light Snow,0,2013-01-18 20:34:00
2:54 PM,12.2,10.4,92,29.77,3.0,Calm,Calm,-,N/A,Snow,Light Snow,0,2013-01-18 20:54:00
3:14 PM,12.2,10.4,92,29.77,4.0,Calm,Calm,-,0.01,Snow,Light Snow,0,2013-01-18 21:14:00
3:34 PM,12.2,10.4,92,29.76,7.0,Calm,Calm,-,0.01,Snow,Light Snow,0,2013-01-18 21:34:00
3:54 PM,12.2,10.4,92,29.75,10.0,Calm,Calm,-,0.01,,Overcast,0,2013-01-18 21:54:00
4:14 PM,12.2,10.4,92,29.74,10.0,Calm,Calm,-,N/A,,Overcast,0,2013-01-18 22:14:00
4:34 PM,12.2,10.4,92,29.77,7.0,Calm,Calm,-,N/A,Snow,Light Snow,0,2013-01-18 22:34:00
4:54 PM,12.2,10.4,92,29.79,4.0,Calm,Calm,-,N/A,Snow,Light Snow,0,2013-01-18 22:54:00
5:14 PM,12.2,10.4,92,29.78,0.5,Calm,Calm,-,N/A,Snow,Light Snow,0,2013-01-18 23:14:00
5:34 PM,12.2,10.4,92,29.79,1.8,Calm,Calm,-,N/A,Snow,Light Snow,0,2013-01-18 23:34:00
5:54 PM,12.2,10.4,92,29.79,10.0,Calm,Calm,-,N/A,Snow,Light Snow,0,2013-01-18 23:54:00
6:14 PM,12.2,10.4,92,29.79,10.0,Calm,Calm,-,N/A,,Overcast,0,2013-01-19 00:14:00
6:34 PM,12.2,10.4,92,29.79,10.0,Calm,Calm,-,N/A,,Overcast,0,2013-01-19 00:34:00
6:54 PM,12.2,10.4,92,29.80,10.0,Calm,Calm,-,N/A,,Overcast,0,2013-01-19 00:54:00
7:14 PM,12.2,10.4,92,29.79,10.0,Calm,Calm,-,N/A,,Overcast,0,2013-01-19 01:14:00
7:34 PM,12.2,10.4,92,29.79,10.0,Calm,Calm,-,N/A,,Overcast,0,2013-01-19 01:34:00
7:55 PM,12.2,10.4,92,29.79,10.0,Calm,Calm,-,N/A,,Overcast,0,2013-01-19 01:55:00
8:14 PM,12.2,10.4,92,29.78,10.0,Calm,Calm,-,0.01,Snow,Light Snow,0,2013-01-19 02:14:00
8:34 PM,12.2,10.4,92,29.77,5.0,Calm,Calm,-,0.01,Snow,Light Snow,0,2013-01-19 02:34:00
8:54 PM,12.2,10.4,92,29.76,3.0,Calm,Calm,-,0.01,Snow,Light Snow,0,2013-01-19 02:54:00
9:34 PM,12.2,10.4,92,29.77,1.0,Calm,Calm,-,N/A,Snow,Light Snow,0,2013-01-19 03:34:00
9:54 PM,12.2,10.4,92,29.76,1.2,Calm,Calm,-,0.01,Snow,Light Snow,0,2013-01-19 03:54:00
10:14 PM,10.4,8.6,92,29.77,2.5,Calm,Calm,-,N/A,Snow,Light Snow,0,2013-01-19 04:14:00
10:34 PM,10.4,8.6,92,29.77,1.8,Calm,Calm,-,N/A,Snow,Light Snow,0,2013-01-19 04:34:00
10:54 PM,10.4,8.6,92,29.75,7.0,Calm,Calm,-,N/A,Snow,Light Snow,0,2013-01-19 04:54:00
11:14 PM,10.4,10.4,100,29.75,10.0,Calm,Calm,-,N/A,,Overcast,0,2013-01-19 05:14:00
11:34 PM,12.2,10.4,92,29.74,10.0,Calm,Calm,-,0.01,,Overcast,0,2013-01-19 05:34:00